SYRACUSE 3B

Last updated on Sun Nov 16 2025 00:03:40 GMT+0000 (Coordinated Universal Time)

1 29273U 06033B 25319.23872060 .00000029 00000+0 00000+0 0 9992 2 29273 2.3502 82.7539 0004569 158.2749 262.8348 1.00271320 70535
UTC large
Height (km)
Speed (km/s)
/
Latitude / Longitude
Inclination (degrees)
Orbital Period (minutes)
Azimuth
Elevation
Range (km)
Doppler Factor

Next 0 passes for location: London (51.5072 / 0.1276)

Sorry there are no passes over London.